Weather History for Joplin, MO

Change the Weather History Date:

Saturday, December 1, 2012

  Actual Average Record
Temperature  
Mean Temperature 65 °F 41 °F  
Max Temperature 72 °F 51 °F 75 °F (1982)
Min Temperature 57 °F 31 °F 11 °F (1985)
Degree Days  
Heating Degree Days 0 24  
Month to date heating degree days 0 24  
Since 1 July heating degree days 786 781  
Cooling Degree Days 0 0  
Month to date cooling degree days 0 0  
Year to date cooling degree days 2106 1698  
Growing Degree Days 14 (Base 50)    
Moisture  
Dew Point 56 °F    
Average Humidity 76    
Maximum Humidity 88    
Minimum Humidity 59    
Precipitation  
Precipitation 0.00 in 0.11 in 0.52 in (1993)
Month to date precipitation 0.00 0.11  
Year to date precipitation 36.96 43.84  
Snow  
Snow 0.00 in - - ()
Month to date snowfall 0.0  
Snow Depth 0.00 in    
Sea Level Pressure  
Sea Level Pressure 29.91 in    
Wind  
Wind Speed 17 mph (South)    
Max Wind Speed 32 mph    
Max Gust Speed 44 mph    
Visibility 10 miles    
Events      
T = Trace of Precipitation, MM = Missing Value Source: NWS Daily Summary

Daily Weather History Graph

Daily Weather History Graph

Search for Another Location

Airport:

Trip Planner

Search our weather history database for the weather conditions in past years. The results will help you decide how hot, cold, wet, or windy it might be!

Date:

Astronomy

Dec. 01, 2012 Rise Set
Actual Time 7:13 AM CST 5:00 PM CST
Civil Twilight 6:44 AM CST 5:29 PM CST
Nautical Twilight 6:12 AM CST 6:01 PM CST
Astronomical Twilight 5:41 AM CST 6:33 PM CST
Moon 7:50 PM CST (12/1) 9:27 AM CST (12/1)
Length of Visible Light 10h 44m
Length of Day
9h 47m
Waning Gibbous, 91% of the Moon is Illuminated
Dec 1
Waning Gibbous
Dec 6
Last Quarter
Dec 13
New
Dec 19
First Quarter
Dec 28
Full

Hourly Weather History & Observations

Time (CST) Temp. Dew Point Humidity Pressure Visibility Wind Dir Wind Speed Gust Speed Precip Events Conditions
12:53 AM 60.1 °F 53.1 °F 78% 30.02 in 10.0 mi South 12.7 mph - N/A   Overcast
1:53 AM 59.0 °F 53.1 °F 81% 30.01 in 9.0 mi South 12.7 mph 23.0 mph N/A   Overcast
2:53 AM 57.9 °F 53.1 °F 84% 29.99 in 8.0 mi South 12.7 mph - N/A   Mostly Cloudy
3:26 AM 57.2 °F 53.6 °F 88% 30.00 in 8.0 mi South 10.4 mph - N/A   Scattered Clouds
3:53 AM 57.0 °F 53.1 °F 87% 29.98 in 7.0 mi South 10.4 mph - N/A   Partly Cloudy
4:11 AM 57.2 °F 53.6 °F 88% 29.99 in 7.0 mi South 9.2 mph - N/A   Mostly Cloudy
4:53 AM 59.0 °F 55.0 °F 87% 29.97 in 9.0 mi South 13.8 mph - N/A   Overcast
5:53 AM 60.1 °F 55.0 °F 83% 29.96 in 10.0 mi South 12.7 mph - N/A   Overcast
6:53 AM 61.0 °F 55.9 °F 83% 29.94 in 10.0 mi South 15.0 mph - N/A   Overcast
7:53 AM 63.0 °F 57.0 °F 81% 29.94 in 10.0 mi South 15.0 mph 28.8 mph N/A   Overcast
8:53 AM 64.0 °F 57.0 °F 78% 29.93 in 10.0 mi South 19.6 mph 32.2 mph N/A   Overcast
9:53 AM 64.9 °F 57.9 °F 78% 29.92 in 10.0 mi South 24.2 mph 32.2 mph N/A   Overcast
10:53 AM 66.9 °F 57.0 °F 70% 29.90 in 10.0 mi South 26.5 mph 33.4 mph N/A   Mostly Cloudy
11:53 AM 68.0 °F 57.0 °F 68% 29.87 in 10.0 mi South 28.8 mph 40.3 mph N/A   Mostly Cloudy
12:53 PM 69.1 °F 57.0 °F 65% 29.83 in 10.0 mi South 27.6 mph 41.4 mph N/A   Mostly Cloudy
1:53 PM 70.0 °F 57.0 °F 63% 29.83 in 10.0 mi South 19.6 mph 35.7 mph N/A   Overcast
2:53 PM 72.0 °F 57.0 °F 59% 29.81 in 10.0 mi South 23.0 mph 33.4 mph N/A   Scattered Clouds
3:53 PM 70.0 °F 57.0 °F 63% 29.82 in 10.0 mi SSW 18.4 mph 27.6 mph N/A   Mostly Cloudy
4:53 PM 69.1 °F 57.0 °F 65% 29.83 in 10.0 mi South 13.8 mph - N/A   Overcast
5:53 PM 69.1 °F 57.9 °F 68% 29.86 in 10.0 mi South 17.3 mph - N/A   Overcast
6:53 PM 69.1 °F 57.9 °F 68% 29.87 in 10.0 mi South 13.8 mph - N/A   Mostly Cloudy
7:53 PM 66.9 °F 57.9 °F 73% 29.88 in 10.0 mi South 9.2 mph 19.6 mph N/A   Mostly Cloudy
8:53 PM 66.0 °F 57.9 °F 75% 29.89 in 10.0 mi SSW 11.5 mph 24.2 mph N/A   Scattered Clouds
9:53 PM 66.9 °F 57.9 °F 73% 29.91 in 10.0 mi North - - N/A   Scattered Clouds
10:53 PM 66.0 °F 59.0 °F 78% 29.90 in 10.0 mi WSW 15.0 mph 29.9 mph N/A   Partly Cloudy
11:53 PM 64.0 °F 57.9 °F 80% 29.92 in 10.0 mi North - - N/A   Clear